STARLINK-4743, 53787

Orbit data source: Space-Track

STARLINK-4743, 53787 is a payload satellite owned by SpaceX/Seattle (US) in LEO that was launched on Sun, 11 Sep 2022 UTC via an FALCON 9 launch vehicle from the Air Force Eastern Test Range (AFETR). Payload-class satellites include a variety of spacecraft equipped with specific instruments for various scientific and technological missions. These include communications satellites like Starlink; space stations such as the ISS; scientific satellites like the Hubble; Earth observation satellites from companies like Planet Labs, Umbra, and HawkEye 360; GPS; miniature CubeSats for education and research; and military/defense satellites.

Loading next visibility...
Identifier
53787, 2022-111Q
Orbit
LEO
Country
Flag of USUS
Related business
Manufacturer
SpaceX/Seattle
Mission
Operational Commercial Communications
Bus & Motor
STARLINK, Unknown motor
Mass
305 kg wet, ~290 kg dry
Launch date (UTC)
2022-09-11 (3 years ago)
Launch vehicle
FALCON 9
Launch site
Air Force Eastern Test Range (AFETR)
Object type
Payload
Rocket body
Debris
Shape & HBR
Box + 1 Pan, 10.1 m
Radar Cross Section
13.562 m², Large (>1 m²)

Expand to show TLE details & history
Last TLE update: 9 hours ago

TLE from 9 hours ago
0 STARLINK-4743
1 53787U 22111Q   26035.33933095  .00000311  00000-0  37620-4 0  9995
2 53787  53.2176  63.6786 0001371  92.7537 267.3612 15.08841217188660
Epoch: 2026-02-04T08:08Z
TLE epoch observation values (Epoch: 2026-02-04T08:08:38.194Z)
Latitude
-0.00001°
Longitude
167.01212°
Altitude
540.681 km
Speed
7.593 km/s
True Right ascension
04h 14m 42s
True Declination
0° 00' 00"
Sunlit
Object was in daylight at epoch
Visualization orbit readout
Latitude
Unknown
Longitude
Unknown
Altitude
Unknown
Speed
Unknown
Apparent Right ascension
Unknown
Apparent Declination
Unknown
Sunlit
N/A
Visualization observer readout
Local Sidereal Time
18:43:00
Azimuth
Unknown
Elevation
Unknown
Doppler factor
Unknown
Orbital elements
Apogee altitude
540.933 km
Perigee altitude
539.036 km
Semi-major axis
6,918.122 km
Eccentricity
0.00014
Inclination
53.2176°
RAAN
63.6786°
Arg. of periapsis
92.7537°
True anomaly
267.34551°
Mean anomaly
267.3612°
Eccentric anomaly
267.35335°
Mean motion
3.77191 °/min
Orbital period
95.44 mins
BSTAR
0.00003762
Loading maneuver chart data...
Computing Atmospheric mass density...
Loading historical data...
Loading historical data...
Loading historical data...
Loading historical data...
Loading historical data...
Loading historical data...
Loading historical data...

Documentation

Showing up to 5 results
|